Other Public Products
Issued by NWS Grand Forks, ND

Home | Current Version | Previous Version | Graphics & Text | Print | Product List | Glossary On
Versions: 1 2 3 4 5 6 7 8 9 10 11 12 13 14 15 16 17 18 19 20 21 22 23 24 25 26 27 28 29 30 31 32 33 34 35 36 37 38 39 40 41 42 43 44 45 46 47 48 49 50
000
FPUS83 KFGF 100931
OPUFGF
PRAIRIE TO PINES WEATHER ROUNDUP
NATIONAL WEATHER SERVICE EASTERN NORTH DAKOTA/GRAND FORKS ND
300 AM CST WED FEB 10 2016

 **SATELLITE DATA USED TO AUGMENT SKY COVER AT AUTOMATED STATIONS**
 *****  WEATHER ACROSS EASTERN NORTH DAKOTA  *****

CITY           SKY/WX    TMP DP  RH WIND       PRES   REMARKS
GRAND FORKS    CLOUDY     4  -4  69 E7        30.15F WCI  -8
GRAND FORKS AF CLOUDY     3  -4  72 E6        30.14F WCI  -8
GRAND CITY NWS NOT AVBL
BUXTON           N/A      4   0  84 NE3         N/A
DEVILS LAKE    LGT SNOW   5   1  85 SE15      30.04F FOG     WCI -13
FARGO          CLOUDY     5  -1  76 E3        30.15F
WAHPETON ARPT  CLOUDY     9   1  72 E3        30.14R
$$

 *****  WEATHER ACROSS CENTRAL AND WESTERN NORTH DAKOTA  *****

CITY           SKY/WX    TMP DP  RH WIND       PRES   REMARKS
JAMESTOWN      LGT SNOW   9   5  84 SE12      30.03F FOG     WCI  -6
BISMARCK       CLOUDY    28  21  75 E10       29.93F WCI  19
MINOT          CLOUDY    20  12  71 E14       29.90F WCI   7
MINOT AFB      CLOUDY    17  15  91 SE14      29.89F WCI   3
GARRISON         N/A     23  20  88 SE12      29.87F WCI  12
WILLISTON      PTCLDY    26  22  84 S3        29.84F
DICKINSON      CLEAR     26  22  84 W8        29.83F WCI  18
HETTINGER      CLEAR     25  21  85 NW6       29.88F WCI  18
$$

 *****  OTHER OBSERVATIONS NORTHEAST NORTH DAKOTA  *****

CITY           SKY/WX    TMP DP  RH WIND       PRES   REMARKS
WALHALLA       FAIR       1  -6  71 SE6       30.14F WCI -10
LANGDON        CLOUDY     3  -2  78 SE14      30.05S HAZE    WCI -15
CAVALIER       FAIR       1  -4  78 SE5       30.15F WCI  -8
GRAFTON        FAIR       1  -6  71 E6        30.18F WCI -10
CANDO          LGT SNOW   5   1  85 SE14      30.05F WCI -12
FORT TOTTEN      N/A      5   1  83 SE7       29.95S WCI  -7
ROLLA          LGT SNOW   5   1  85 SE15      29.99F WCI -13
RUGBY          CLOUDY     9   7  92 SE17      29.98S FOG     WCI -10
 ***** THE ABOVE OBSERVATIONS ARE NON NWS ARE NOT QUALITY
        CONTROLLED AND MAY MIS-REPORT RAIN FOR SNOW...
$$

 *****  OTHER OBSERVATIONS SOUTHEAST NORTH DAKOTA *****

CITY           SKY/WX    TMP DP  RH WIND       PRES   REMARKS
COOPERSTOWN    NOT AVBL
VALLEY CITY    LGT SNOW   5   1  85 SE8       30.08F WCI  -8
OAKES          LGT SNOW  10   9  92 E10       30.06F WCI  -3
GWINNER        CLOUDY    10   9  92 E9        30.09S WCI  -2
BUFFALO          N/A      4  -2  76 E6          N/A  WCI  -7
WYNDMERE         N/A      7   1  78 E5          N/A  WCI  -2
 ***** THE ABOVE OBSERVATIONS ARE NON NWS ARE NOT QUALITY
       CONTROLLED AND MAY MIS-REPORT RAIN FOR SNOW...
$$

  *****  WEATHER ACROSS NORTHERN MINNESOTA  *****

CITY           SKY/WX    TMP DP  RH WIND       PRES   REMARKS
FLAG ISLAND    PTCLDY   -15 -18  84 CALM      30.15R
WARROAD        CLOUDY    -9 -15  77 NE3       30.16R
ROSEAU         CLOUDY    -9 -15  77 CALM      30.16R
HALLOCK        CLOUDY     0  -8  71 SE7       30.15F WCI -13
THF RVR FALLS  CLOUDY    -2  -8  78 E6        30.13F WCI -14
HALSTAD          N/A      3   0  85 E5          N/A  WCI  -6
FOSSTON          N/A     -8 -15  71 CALM      30.11F
BAUDETTE       PTCLDY   -19 -25  73 CALM      30.12F
WASKISH        CLOUDY   -18 -24  76 CALM      30.11F
CROOKSTON      CLOUDY     1  -4  78 SE5       30.16F WCI  -8
$$
  *****  WEATHER ACROSS CENTRAL AND WEST MINNESOTA  *****

CITY           SKY/WX    TMP DP  RH WIND       PRES   REMARKS
BEMIDJI        CLOUDY   -14 -18  81 CALM      30.10S
PARK RAPIDS    CLOUDY    -6 -11  79 NW3       30.08F
WADENA         CLOUDY    -2  -6  84 CALM      30.08F
DETROIT LAKES  CLOUDY     3   0  85 CALM      30.09F
MOORHEAD       CLOUDY     3  -2  78 CALM      30.15R
FERGUS FALLS   CLOUDY     5  -2  72 CALM      30.14F
ELBOW LAKE     CLOUDY     4  -2  76 SE7       30.11S WCI  -8
MORRIS MN      CLOUDY     7   0  72 E7        30.10F WCI  -5
STAPLES        CLOUDY    -2  -8  78 N3        30.09F
WHEATON        FLURRIES  10   5  79 E7        30.13F WCI   0
$$
  *****  WEATHER ELSEWHERE ACROSS MINNESOTA  *****

CITY           SKY/WX    TMP DP  RH WIND       PRES   REMARKS
DULUTH         FLURRIES  -8 -12  83 N6        30.02F WCI -21
INTRNTL FALLS  CLOUDY   -12 -17  78 N3        30.12F HAZE
ELY            CLOUDY    -6  -9  84 N5        30.04F WCI -17
CLOQUET        PTCLDY    -8 -11  84 NW7       30.05F WCI -22
BRAINERD       CLOUDY    -2  -7  79 CALM      30.10F
HIBBING        PTCLDY   -10 -13  86 N7        30.06F WCI -25
ALEXANDRIA     CLOUDY     3  -4  72 NE7       30.10F WCI  -9
SAINT CLOUD    CLOUDY     2  -4  76 NW6       30.13R WCI  -9
MINNEAPOLIS    CLOUDY     5  -5  63 N7        30.13S WCI  -7
$$

  *****  WEATHER ACROSS SOUTH DAKOTA  *****

CITY           SKY/WX    TMP DP  RH WIND       PRES   REMARKS
SIOUX FALLS    CLOUDY    21  12  68 E7        30.07F WCI  12
BROOKINGS      FLURRIES  15   9  76 SE6       30.04F WCI   6
WATERTOWN      FLURRIES  14   3  61 E6        30.03F WCI   5
HURON          CLOUDY    24  19  81 SE12      30.02F WCI  13
SISSETON         N/A     10   5  80 E7        30.09F WCI  -1
ABERDEEN       LGT SNOW  18  14  84 E9        30.03F FOG     WCI   7
MITCHELL       CLOUDY    26  19  74 SE8       30.04F WCI  18
PIERRE         CLEAR     25  22  88 E7        29.93F WCI  17
MOBRIDGE       PTCLDY    27  20  75 E15       29.90F WCI  15
RAPID CITY     CLEAR     32  25  75 CALM      29.93F
$$

  *****  SOME WEATHER IN NEARBY STATES *****

CITY           SKY/WX    TMP DP  RH WIND       PRES   REMARKS
GLASGOW MT     CLEAR     32  27  81 NW8       29.88R WCI  25
GREAT FALLS MT CLEAR     42  23  46 SW15      30.03F
CHEYENNE WY    CLEAR     40  15  36 W20       30.16F
SCOTTSBLUFF NE CLEAR     31  24  75 N3        30.09F
OMAHA NE       CLOUDY    22  17  81 SE8       30.13F WCI  12
DES MOINES IA  CLOUDY    17   7  64 N8        30.15F WCI   7
DAVENPORT IA   CLEAR      8   0  69 NW8       30.09R WCI  -4
CHICAGO IL     PTCLDY    12   2  64 NW14      29.95S WCI  -3
EAU CLAIRE WI  CLOUDY     1  -8  66 NW6       30.07S WCI -10
LA CROSSE WI   CLOUDY     4  -7  60 NW10      30.09S WCI -11
$$

  *****  SOME NATIONAL WEATHER *****

CITY           SKY/WX    TMP DP  RH WIND       PRES   REMARKS
LA GUARDIA NY  CLOUDY    34  30  86 SW9       29.58S
RALEIGH NC     CLEAR     25  13  60 W5        29.84S WCI  19
ATLANTA GA     FLURRIES  26  13  57 NW14G24   30.02R WCI  14
NEW ORLEANS LA CLEAR     46  27  47 NW8       30.25R
OKLAHOMA CITY  CLEAR     24  19  81 CALM      30.29S
ALBUQUERQUE NM CLEAR     33  18  53 CALM      30.41R
SALT LAKE CITY FOG       26  25  96 N5        30.47  VSB 1/4 WCI  20
LOS ANGELES CA PTCLDY    62  41  46 CALM      30.12R
BOISE ID       FOG       28  28 100 CALM      30.43F VSB 1/4
SEATTLE WA     PTCLDY    49  42  77 SE5       30.12S
$$

*** WEATHER ACROSS MANITOBA...SASKATCHEWAN AND ONTARIO ***
                ***ONTARIO***

CITY           SKY/WX    TMP DP  RH WIND       PRES   REMARKS
GERALDTON      PTCLDY   -15 -20  76 NW9       29.98S WCI -33
THUNDER BAY    CLEAR     -9 -18  64 W7        30.10F WCI -24
SIOUX LOOKOUT  CLEAR    -24 -27  83 N3        30.10F
TORONTO        CLOUDY    27  21  80 W17G23    29.51R WCI  14
BIG TROUT LK   CLEAR    -27 -33  75 NW7       30.15F WCI -46
PICKLE LAKE    NOT AVBL
DRYDEN         CLEAR    -17 -22  76 N3        30.10F
KENORA         CLEAR    -13 -17  84 NE7       30.12F WCI -29
$$
                *** MANITOBA***

CITY           SKY/WX    TMP DP  RH WIND       PRES   REMARKS
BRANDON        LGT SNOW   5   1  85 E12       30.04F VSB 1   WCI -11
DAUPHIN        LGT SNOW   5   1  85 SE8       30.07F WCI  -8
ISLAND LAKE    CLEAR    -29 -36  68 CALM      30.22F
PILOT MOUND      N/A      3   0  85 SE14        N/A  WCI -15
THE PAS        MOCLDY    -6 -13  71 E8        30.12S WCI -21
THOMPSON       FLURRIES -13 -20  70 CALM      30.22F
WINNIPEG       MOCLDY    -2  -9  71 SE9       30.18F WCI -18
LYNN LAKE      LGT SNOW  -6  -9  84 E6        30.12R WCI -18
CHURCHILL      CRYSTALS -29 -36  68 NW10      30.28S WCI -53
GILLAM         CLEAR    -27 -35  68 NW8       30.25F WCI -48
$$
                ***SASKATCHEWAN***

CITY           SKY/WX    TMP DP  RH WIND       PRES   REMARKS
ESTEVAN        MOCLDY    19  16  86 SE13      29.81F WCI   7
KINDERSLEY     PTCLDY    30  27  86 NW12      29.92R WCI  21
LLOYDMINSTER   MOCLDY    34  30  86 N14G20    29.96R WCI  24
PRINCE ALBERT  FLURRIES  16  12  86 NE7       29.93R WCI   6
REGINA         PTCLDY    23  21  93 E8        29.82R WCI  14
YORKTON        FLURRIES  10   7  85 SE16      29.93S WCI  -7
N. BATTLEFORD  MOCLDY    25  25 100 NW14      29.94R FOC1F1C2F2C3F3C4F4C5F5C6F6C7F7C8F8C9F9CaFaCbFbCcFcCdFdCe!


USA.gov is the U.S. government's official web portal to all federal, state and local government web resources and services.